Total_Precipitation_Accumulation
0.72 0.72 0.75 0.70 0.66 0.64 0.68 0.84 1.08 0.93 0.50 0.29 0.27 0.28 0.34 0.39 0.48 0.52 0.50 0.59 0.65 0.70 0.80 0.90 0.97 1.03 1.20 1.55 2.28 3.18 3.90 4.07 3.79 3.28 3.05 3.29 3.65 4.13
0.79 0.79 0.79 0.76 0.73 0.71 0.71 0.74 0.89 1.05 0.78 0.33 0.27 0.28 0.35 0.40 0.49 0.52 0.50 0.58 0.63 0.69 0.73 0.78 0.89 1.01 1.14 1.29 1.62 2.33 3.13 3.78 4.06 4.01 3.79 3.72 3.93 4.23
0.92 0.92 0.86 0.81 0.84 0.81 0.79 0.79 0.80 0.93 0.95 0.44 0.28 0.31 0.42 0.50 0.50 0.50 0.50 0.52 0.54 0.65 0.70 0.73 0.79 0.88 1.02 1.16 1.34 1.72 2.41 3.08 3.69 4.10 4.32 4.26 4.21 4.24
1.03 1.01 0.96 0.93 0.92 0.89 0.93 0.91 0.84 0.82 0.93 0.71 0.39 0.36 0.42 0.50 0.54 0.55 0.54 0.52 0.51 0.59 0.66 0.73 0.79 0.86 0.93 1.04 1.20 1.37 1.76 2.31 2.91 3.49 3.91 4.04 4.08 4.29
1.08 1.11 1.07 1.07 1.04 0.99 0.99 1.01 0.96 0.88 0.90 0.90 0.61 0.44 0.46 0.52 0.62 0.64 0.62 0.63 0.60 0.64 0.67 0.73 0.82 0.88 0.92 1.00 1.12 1.27 1.39 1.64 2.07 2.74 3.42 3.72 3.75 3.83
1.10 1.14 1.17 1.19 1.18 1.18 1.24 1.21 1.20 1.19 1.12 1.08 0.88 0.67 0.62 0.63 0.74 0.76 0.71 0.69 0.72 0.70 0.73 0.73 0.78 0.85 0.88 0.90 0.93 1.02 1.20 1.52 1.85 2.24 2.80 3.25 3.37 3.39
1.18 1.16 1.18 1.28 1.42 1.57 1.69 1.61 1.51 1.54 1.47 1.40 1.22 0.99 0.84 0.84 0.93 0.87 0.87 0.78 0.81 0.82 0.80 0.75 0.72 0.71 0.76 0.86 0.96 1.03 1.11 1.30 1.56 1.90 2.33 2.79 3.11 3.18
1.14 1.08 1.08 1.15 1.23 1.38 1.57 1.59 1.57 1.71 1.78 1.70 1.51 1.29 1.00 0.90 1.00 1.14 1.22 1.23 1.11 0.90 0.91 0.90 0.85 0.85 0.82 0.84 0.98 1.05 1.15 1.30 1.44 1.63 1.99 2.36 2.74 3.09
0.94 0.93 0.92 0.96 1.07 1.01 1.16 1.25 1.30 1.40 1.57 1.71 1.76 1.45 1.20 1.10 1.31 1.50 1.49 1.45 1.18 0.99 1.13 1.24 1.10 1.04 0.96 0.98 1.08 1.05 1.13 1.25 1.40 1.52 1.68 1.98 2.34 2.75
0.89 0.88 0.86 0.85 0.93 1.09 1.17 1.14 1.05 1.05 1.24 1.44 1.61 1.50 1.38 1.43 1.70 1.95 2.00 1.99 1.65 1.32 1.28 1.50 1.33 1.26 1.19 1.13 1.14 1.07 1.10 1.16 1.25 1.41 1.59 1.77 2.00 2.34
0.93 0.95 0.96 0.86 0.99 1.21 1.27 1.22 1.04 0.95 1.04 1.28 1.49 1.60 1.68 1.84 2.09 2.41 2.51 2.57 2.36 1.87 1.58 1.61 1.51 1.43 1.41 1.35 1.30 1.24 1.16 1.15 1.16 1.25 1.42 1.62 1.86 2.12
0.95 1.00 1.16 1.13 1.15 1.23 1.26 1.32 1.28 1.02 0.90 0.97 1.06 1.17 1.27 1.45 1.81 2.06 2.25 2.48 2.43 2.26 1.82 1.74 1.74 1.72 1.86 1.54 1.32 1.23 1.17 1.21 1.17 1.12 1.18 1.34 1.61 1.80
1.04 1.06 1.10 1.23 1.21 1.24 1.28 1.28 1.33 1.19 1.08 1.10 1.07 1.04 1.10 1.25 1.44 1.69 1.96 2.25 2.42 2.28 1.84 1.96 2.13 1.98 1.97 1.73 1.41 1.26 1.18 1.12 1.04 1.03 1.07 1.17 1.38 1.58
1.07 0.96 1.02 1.21 1.22 1.27 1.24 1.27 1.33 1.30 1.21 1.18 1.10 1.00 1.01 1.14 1.24 1.44 1.73 1.92 2.04 2.05 1.83 2.03 2.38 2.11 2.07 1.84 1.57 1.41 1.29 1.21 1.09 0.99 0.94 1.13 1.28 1.46
1.16 1.24 1.17 1.21 1.22 1.14 1.13 1.19 1.20 1.15 1.22 1.20 1.06 0.91 0.88 0.99 1.13 1.31 1.55 1.77 1.88 1.90 1.89 1.91 2.13 2.14 2.19 2.05 1.63 1.43 1.44 1.43 1.24 1.11 1.02 0.98 1.02 1.19
1.21 1.29 1.29 1.21 1.18 1.15 1.12 1.10 1.05 1.10 1.17 1.12 0.98 0.87 0.87 1.00 1.17 1.30 1.49 1.68 1.92 1.92 1.86 1.90 2.08 2.35 2.37 1.95 1.71 1.55 1.41 1.53 1.42 1.25 1.14 1.06 1.02 1.03
1.45 1.43 1.36 1.29 1.29 1.20 1.11 1.06 1.04 1.10 1.15 1.03 1.00 1.00 1.02 1.08 1.16 1.22 1.40 1.56 1.77 1.72 1.73 1.89 2.08 2.27 2.40 2.27 2.05 1.68 1.46 1.39 1.37 1.33 1.28 1.22 1.17 1.13
1.48 1.44 1.29 1.18 1.16 1.12 1.12 1.10 1.04 1.00 1.00 1.01 1.04 1.05 1.07 1.10 1.14 1.16 1.28 1.46 1.57 1.54 1.59 1.74 2.00 2.26 2.47 2.57 2.29 1.85 1.57 1.46 1.42 1.40 1.32 1.30 1.31 1.27
1.21 1.13 1.06 1.03 1.04 1.04 1.04 1.04 1.00 0.91 0.93 1.03 1.07 1.08 1.09 1.13 1.16 1.18 1.23 1.35 1.44 1.47 1.54 1.66 1.90 2.17 2.24 2.22 2.30 2.01 1.74 1.60 1.53 1.56 1.48 1.32 1.30 1.31
0.99 0.97 0.96 0.95 0.98 1.02 1.00 0.98 0.95 0.93 0.97 1.02 1.06 1.07 1.11 1.16 1.17 1.14 1.16 1.27 1.35 1.40 1.47 1.57 1.77 2.04 2.21 2.06 2.07 2.06 1.99 1.79 1.63 1.63 1.59 1.47 1.41 1.45
0.88 0.87 0.88 0.93 0.95 0.94 0.93 0.92 0.93 0.93 0.92 0.96 1.01 1.04 1.08 1.15 1.15 1.06 1.08 1.18 1.29 1.33 1.36 1.35 1.47 1.76 2.07 2.13 2.05 1.89 1.96 2.07 1.85 1.69 1.64 1.65 1.63 1.60
0.80 0.82 0.82 0.86 0.92 0.96 0.93 0.92 0.92 0.89 0.89 0.93 0.94 0.96 0.99 1.06 1.09 1.05 1.08 1.16 1.17 1.19 1.25 1.27 1.34 1.60 1.98 2.19 2.07 1.85 1.84 2.03 2.20 2.02 1.77 1.68 1.82 1.93
0.83 0.82 0.80 0.82 0.87 0.92 0.96 0.95 0.92 0.85 0.83 0.88 0.90 0.89 0.92 0.98 0.98 1.01 1.05 1.08 1.12 1.14 1.20 1.29 1.34 1.51 1.79 1.97 2.07 1.97 1.84 1.85 1.95 2.06 2.15 1.89 1.57 1.50